Location: Bad Salzschlirf
(50.3750°N, 9.3000°E)
Time: 04:40:03
(UTC+02:00)

ISS - Pass Details

Date: 12 July 2025
Orbit: 413 x 417 km, 51.6° (Epoch: 12 July)

Event Time Altitude Azimuth Distance (km) Brightness Sun altitude
Rises 02:47:14 0° 286° (WNW) 2,358 0.0 -15.6°
Reaches altitude 10° 02:49:26 10° 277° (W) 1,493 -1.1 -15.5°
Enters shadow 02:52:03 33° 230° (SW) 729 -3.0 -15.3°
